LOT269 EPWA-EHAM

Flight info

Callsign LOT269
Flight time 1h 30m
Altitude 34000
Route LOLSI T174 INDIG DCT GOVEN DCT NORKU
Aircraft B738/M-SDE2E3FGHIRWXY/LB1

Departure

Time 2026-05-01 12:38
Airport Warsaw Chopin Airport (EPWA)

Arrival

Time 2026-05-01 14:08
Airport Amsterdam Airport Schiphol (EHAM)
Time Latitude Longitude Altitude Speed Heading
2026-05-01 12:17 52.17473 20.96938 369 ft 0 kts 242°
2026-05-01 12:27 52.17493 20.96999 369 ft 3 kts 242°
2026-05-01 12:28 52.17497 20.97061 369 ft 3 kts 331°
2026-05-01 12:28 52.17477 20.97078 369 ft 1 kts 332°
2026-05-01 12:30 52.17496 20.97061 369 ft 5 kts 331°
2026-05-01 12:31 52.17540 20.97022 369 ft 9 kts 332°
2026-05-01 12:31 52.17604 20.96964 369 ft 12 kts 314°
2026-05-01 12:31 52.17582 20.96837 369 ft 14 kts 238°
2026-05-01 12:31 52.17525 20.96682 369 ft 18 kts 239°
2026-05-01 12:32 52.17449 20.96511 369 ft 20 kts 242°
2026-05-01 12:32 52.17322 20.96460 369 ft 14 kts 152°
2026-05-01 12:32 52.17218 20.96551 369 ft 19 kts 152°
2026-05-01 12:33 52.17086 20.96666 369 ft 23 kts 152°
2026-05-01 12:33 52.16937 20.96796 369 ft 22 kts 152°
2026-05-01 12:33 52.16790 20.96924 369 ft 26 kts 152°
2026-05-01 12:33 52.16650 20.97103 369 ft 24 kts 110°
2026-05-01 12:34 52.16607 20.97256 369 ft 0 kts 114°
2026-05-01 12:34 52.16599 20.97285 369 ft 6 kts 114°
2026-05-01 12:34 52.16572 20.97379 369 ft 12 kts 114°
2026-05-01 12:34 52.16529 20.97533 369 ft 18 kts 115°
2026-05-01 12:35 52.16471 20.97736 369 ft 22 kts 115°
2026-05-01 12:35 52.16403 20.97980 369 ft 25 kts 115°
2026-05-01 12:35 52.16316 20.98216 369 ft 22 kts 135°
2026-05-01 12:35 52.16213 20.98343 369 ft 11 kts 144°
2026-05-01 12:36 52.16133 20.98402 369 ft 13 kts 200°
2026-05-01 12:36 52.16119 20.98338 369 ft 8 kts 286°
2026-05-01 12:36 52.16146 20.98237 369 ft 12 kts 294°
2026-05-01 12:36 52.16154 20.98208 369 ft 0 kts 294°
2026-05-01 12:37 52.16157 20.98196 369 ft 11 kts 294°
2026-05-01 12:37 52.16309 20.97656 369 ft 92 kts 295°
2026-05-01 12:37 52.16679 20.96350 415 ft 156 kts 294°
2026-05-01 12:37 52.17171 20.94550 900 ft 185 kts 296°
2026-05-01 12:38 52.17729 20.92568 1703 ft 201 kts 297°
2026-05-01 12:38 52.18275 20.90538 2844 ft 192 kts 292°
2026-05-01 12:38 52.18449 20.88314 3552 ft 208 kts 272°
2026-05-01 12:38 52.18290 20.85811 3914 ft 236 kts 264°
2026-05-01 12:39 52.18165 20.83091 4655 ft 243 kts 273°
2026-05-01 12:39 52.18315 20.80298 5385 ft 255 kts 282°
2026-05-01 12:39 52.18492 20.77359 6138 ft 267 kts 274°
2026-05-01 12:39 52.18333 20.74295 6981 ft 276 kts 263°
2026-05-01 12:40 52.17961 20.71188 7801 ft 283 kts 262°
2026-05-01 12:40 52.17565 20.68008 8621 ft 289 kts 262°
2026-05-01 12:40 52.17151 20.64759 9403 ft 296 kts 262°
2026-05-01 12:40 52.16730 20.61453 10225 ft 300 kts 262°
2026-05-01 12:41 52.16306 20.58127 10952 ft 308 kts 263°
2026-05-01 12:41 52.15851 20.54561 11397 ft 328 kts 263°
2026-05-01 12:41 52.15461 20.50842 11744 ft 345 kts 268°
2026-05-01 12:41 52.15345 20.46880 12326 ft 353 kts 276°
2026-05-01 12:42 52.15464 20.42859 13062 ft 357 kts 279°
2026-05-01 12:42 52.15666 20.38812 13811 ft 361 kts 281°
2026-05-01 12:42 52.15908 20.34717 14550 ft 366 kts 281°
2026-05-01 12:42 52.16111 20.30562 15271 ft 371 kts 280°
2026-05-01 12:43 52.16285 20.26346 15962 ft 376 kts 279°
2026-05-01 12:43 52.16450 20.22059 16637 ft 381 kts 279°
2026-05-01 12:43 52.16610 20.17727 17298 ft 386 kts 279°
2026-05-01 12:43 52.16770 20.13335 17940 ft 391 kts 279°
2026-05-01 12:44 52.16929 20.08901 18594 ft 394 kts 279°
2026-05-01 12:44 52.17088 20.04422 19237 ft 398 kts 279°
2026-05-01 12:44 52.17409 19.95325 20476 ft 406 kts 279°
2026-05-01 12:45 52.17563 19.86033 21640 ft 418 kts 272°
2026-05-01 12:45 52.17299 19.81287 22211 ft 424 kts 268°
2026-05-01 12:45 52.16897 19.76576 22752 ft 428 kts 266°
2026-05-01 12:46 52.16439 19.71747 23283 ft 432 kts 266°
2026-05-01 12:46 52.15987 19.66887 23798 ft 435 kts 266°
2026-05-01 12:46 52.15537 19.62006 24324 ft 438 kts 266°
2026-05-01 12:46 52.15085 19.57088 24813 ft 441 kts 266°
2026-05-01 12:47 52.14628 19.52121 25288 ft 444 kts 266°
2026-05-01 12:47 52.14170 19.47136 25764 ft 447 kts 266°
2026-05-01 12:47 52.13708 19.42113 26222 ft 450 kts 266°
2026-05-01 12:47 52.13245 19.37065 26647 ft 453 kts 266°
2026-05-01 12:48 52.12775 19.31976 27111 ft 455 kts 266°
2026-05-01 12:48 52.12290 19.26868 27521 ft 458 kts 265°
2026-05-01 12:48 52.11798 19.21740 27934 ft 460 kts 265°
2026-05-01 12:48 52.11301 19.16582 28329 ft 463 kts 265°
2026-05-01 12:49 52.10798 19.11404 28730 ft 465 kts 265°
2026-05-01 12:49 52.10291 19.06204 29102 ft 467 kts 265°
2026-05-01 12:49 52.09779 19.00977 29468 ft 469 kts 265°
2026-05-01 12:49 52.09264 18.95748 29980 ft 467 kts 265°
2026-05-01 12:50 52.08751 18.90550 30519 ft 464 kts 265°
2026-05-01 12:50 52.08412 18.87131 30845 ft 463 kts 265°
2026-05-01 12:50 52.07727 18.80233 31448 ft 461 kts 265°
2026-05-01 12:50 52.07402 18.76818 31751 ft 460 kts 266°
2026-05-01 12:51 52.06941 18.71697 32190 ft 459 kts 266°
2026-05-01 12:51 52.06458 18.66573 32657 ft 456 kts 265°
2026-05-01 12:51 52.05467 18.56418 33461 ft 455 kts 265°
2026-05-01 12:52 52.04967 18.51364 33902 ft 452 kts 266°
2026-05-01 12:52 52.04007 18.41249 34330 ft 456 kts 265°
2026-05-01 12:52 52.03489 18.36154 34347 ft 457 kts 265°
2026-05-01 12:53 52.01913 18.21019 34355 ft 450 kts 265°
2026-05-01 12:54 52.00857 18.10987 34356 ft 451 kts 265°
2026-05-01 12:54 51.99833 17.95920 34360 ft 444 kts 276°
2026-05-01 12:55 52.00250 17.80932 34365 ft 443 kts 278°
2026-05-01 12:56 52.00540 17.70977 34370 ft 450 kts 277°
2026-05-01 12:56 52.00822 17.60688 34369 ft 463 kts 277°
2026-05-01 12:57 52.01097 17.50119 34370 ft 474 kts 277°
2026-05-01 12:57 52.01598 17.33876 34372 ft 485 kts 277°
2026-05-01 12:58 52.01929 17.22905 34372 ft 486 kts 277°
2026-05-01 12:59 52.02363 17.06467 34373 ft 485 kts 276°
2026-05-01 12:59 52.02760 16.90046 34374 ft 485 kts 276°
2026-05-01 13:00 52.03131 16.73661 34382 ft 484 kts 276°
2026-05-01 13:01 52.03477 16.57281 34388 ft 484 kts 275°
2026-05-01 13:02 52.03800 16.40915 34393 ft 484 kts 275°
2026-05-01 13:07 52.05531 15.20986 34383 ft 482 kts 274°
2026-05-01 13:08 52.05627 15.10099 34385 ft 482 kts 273°
2026-05-01 13:08 52.05689 14.99207 34387 ft 482 kts 273°
2026-05-01 13:09 52.05741 14.88313 34389 ft 482 kts 273°
2026-05-01 13:09 52.05792 14.77418 34395 ft 482 kts 272°
2026-05-01 13:10 52.06141 14.66566 34399 ft 480 kts 277°
2026-05-01 13:10 52.06748 14.55764 34402 ft 480 kts 277°
2026-05-01 13:11 52.07305 14.44943 34407 ft 481 kts 277°
2026-05-01 13:11 52.07829 14.34108 34415 ft 481 kts 276°
2026-05-01 13:12 52.08333 14.23263 34414 ft 481 kts 276°
2026-05-01 13:12 52.08898 14.12431 34414 ft 481 kts 277°
2026-05-01 13:13 52.09470 14.01591 34416 ft 481 kts 277°
2026-05-01 13:13 52.09996 13.90816 34416 ft 481 kts 276°
2026-05-01 13:14 52.10504 13.79898 34415 ft 481 kts 276°
2026-05-01 13:14 52.10991 13.69119 34416 ft 481 kts 276°
2026-05-01 13:15 52.11468 13.58268 34416 ft 481 kts 276°
2026-05-01 13:15 52.11934 13.47430 34416 ft 480 kts 276°
2026-05-01 13:16 52.12389 13.36591 34417 ft 480 kts 276°
2026-05-01 13:16 52.12834 13.25750 34419 ft 480 kts 275°
2026-05-01 13:17 52.13691 13.04145 34423 ft 479 kts 275°
2026-05-01 13:18 52.14306 12.87982 34425 ft 479 kts 275°
2026-05-01 13:18 52.14706 12.77163 34426 ft 478 kts 275°
2026-05-01 13:19 52.15094 12.66356 34426 ft 479 kts 274°
2026-05-01 13:20 52.15661 12.50106 34427 ft 479 kts 274°
2026-05-01 13:20 52.16025 12.39278 34428 ft 478 kts 274°
2026-05-01 13:21 52.16551 12.23103 34426 ft 478 kts 274°
2026-05-01 13:21 52.16891 12.12283 34427 ft 479 kts 274°
2026-05-01 13:22 52.17221 12.01446 34428 ft 479 kts 274°
2026-05-01 13:22 52.17543 11.90552 34429 ft 479 kts 274°
2026-05-01 13:23 52.17851 11.79781 34429 ft 479 kts 274°
2026-05-01 13:23 52.18152 11.68949 34430 ft 479 kts 274°
2026-05-01 13:24 52.18442 11.58121 34431 ft 478 kts 273°
2026-05-01 13:25 52.18858 11.41881 34430 ft 478 kts 273°
2026-05-01 13:25 52.19123 11.31070 34427 ft 477 kts 273°
2026-05-01 13:26 52.19378 11.20260 34424 ft 477 kts 273°
2026-05-01 13:26 52.19622 11.09464 34421 ft 476 kts 273°
2026-05-01 13:27 52.19857 10.98677 34419 ft 476 kts 272°
2026-05-01 13:27 52.20191 10.82512 34412 ft 475 kts 272°
2026-05-01 13:28 52.20501 10.66377 34409 ft 475 kts 272°
2026-05-01 13:29 52.20879 10.44906 34408 ft 474 kts 272°
2026-05-01 13:31 52.21374 10.12719 34409 ft 473 kts 272°
2026-05-01 13:32 52.21719 9.85925 34409 ft 473 kts 272°
2026-05-01 13:33 52.22003 9.59166 34408 ft 473 kts 271°
2026-05-01 13:34 52.22187 9.37707 34407 ft 473 kts 271°
2026-05-01 13:35 52.22300 9.21622 34407 ft 473 kts 271°
2026-05-01 13:36 52.22391 9.05549 34406 ft 472 kts 271°
2026-05-01 13:36 52.22459 8.89534 34382 ft 473 kts 271°
2026-05-01 13:37 52.22488 8.80565 34378 ft 472 kts 271°
2026-05-01 13:37 52.22514 8.69848 34375 ft 472 kts 271°
2026-05-01 13:38 52.22534 8.53764 34369 ft 472 kts 271°
2026-05-01 13:39 52.22535 8.43059 34364 ft 472 kts 271°
2026-05-01 13:39 52.22527 8.32411 34360 ft 472 kts 271°
2026-05-01 13:40 52.22509 8.21705 34357 ft 472 kts 271°
2026-05-01 13:40 52.22482 8.10979 34354 ft 472 kts 271°
2026-05-01 13:40 52.22464 8.05657 34202 ft 466 kts 271°
2026-05-01 13:41 52.22445 8.00405 33752 ft 458 kts 271°
2026-05-01 13:41 52.22424 7.95243 33014 ft 457 kts 271°
2026-05-01 13:41 52.22400 7.90014 31910 ft 465 kts 271°
2026-05-01 13:41 52.22373 7.84674 30728 ft 473 kts 271°
2026-05-01 13:42 52.22343 7.79277 29557 ft 478 kts 270°
2026-05-01 13:42 52.22311 7.73823 28364 ft 483 kts 270°
2026-05-01 13:42 52.22276 7.68323 27118 ft 487 kts 270°
2026-05-01 13:42 52.22238 7.62789 25881 ft 490 kts 270°
2026-05-01 13:43 52.22197 7.57228 24938 ft 488 kts 269°
2026-05-01 13:43 52.22155 7.51741 24218 ft 481 kts 269°
2026-05-01 13:43 52.22138 7.46331 23475 ft 475 kts 270°
2026-05-01 13:43 52.22122 7.40988 22684 ft 470 kts 269°
2026-05-01 13:44 52.22076 7.35680 22007 ft 463 kts 268°
2026-05-01 13:44 52.22020 7.30495 21563 ft 452 kts 268°
2026-05-01 13:44 52.21961 7.25530 21413 ft 435 kts 268°
2026-05-01 13:44 52.21899 7.20630 21312 ft 418 kts 268°
2026-05-01 13:45 52.21841 7.16053 21229 ft 402 kts 268°
2026-05-01 13:45 52.21781 7.11530 21150 ft 387 kts 268°
2026-05-01 13:45 52.21726 7.07277 21077 ft 373 kts 268°
2026-05-01 13:45 52.21674 7.03114 21007 ft 361 kts 268°
2026-05-01 13:46 52.21937 6.99126 20887 ft 351 kts 283°
2026-05-01 13:46 52.22855 6.95460 20639 ft 348 kts 298°
2026-05-01 13:46 52.24213 6.92137 20385 ft 346 kts 307°
2026-05-01 13:46 52.25726 6.89170 20139 ft 344 kts 310°
2026-05-01 13:47 52.27269 6.86229 19889 ft 341 kts 309°
2026-05-01 13:47 52.28777 6.83243 19637 ft 339 kts 308°
2026-05-01 13:47 52.30272 6.80239 19387 ft 341 kts 308°
2026-05-01 13:47 52.31769 6.77227 19137 ft 341 kts 308°
2026-05-01 13:48 52.33257 6.74221 18887 ft 341 kts 308°
2026-05-01 13:48 52.34760 6.71229 18637 ft 339 kts 309°
2026-05-01 13:48 52.36252 6.68248 18386 ft 338 kts 308°
2026-05-01 13:48 52.37731 6.65270 18136 ft 337 kts 308°
2026-05-01 13:49 52.39205 6.62285 17885 ft 336 kts 308°
2026-05-01 13:49 52.40673 6.59306 17634 ft 335 kts 308°
2026-05-01 13:49 52.42133 6.56340 17384 ft 334 kts 308°
2026-05-01 13:49 52.43592 6.53378 17134 ft 334 kts 308°
2026-05-01 13:50 52.45042 6.50426 16884 ft 333 kts 307°
2026-05-01 13:50 52.46261 6.47212 16626 ft 330 kts 292°
2026-05-01 13:50 52.46955 6.43657 16379 ft 327 kts 280°
2026-05-01 13:50 52.47313 6.39986 16130 ft 325 kts 274°
2026-05-01 13:51 52.47512 6.36303 15879 ft 323 kts 271°
2026-05-01 13:51 52.47657 6.32630 15628 ft 322 kts 271°
2026-05-01 13:51 52.47813 6.28967 15378 ft 322 kts 271°
2026-05-01 13:51 52.47977 6.25314 15128 ft 321 kts 272°
2026-05-01 13:52 52.48144 6.21669 14877 ft 320 kts 272°
2026-05-01 13:52 52.48317 6.18028 14627 ft 320 kts 271°
2026-05-01 13:52 52.48486 6.14391 14377 ft 320 kts 272°
2026-05-01 13:52 52.48656 6.10742 14127 ft 320 kts 272°
2026-05-01 13:53 52.48825 6.07116 13879 ft 319 kts 272°
2026-05-01 13:53 52.49167 5.99931 13491 ft 311 kts 272°
2026-05-01 13:53 52.49358 5.96417 13489 ft 308 kts 272°
2026-05-01 13:54 52.49534 5.92905 13443 ft 309 kts 271°
2026-05-01 13:54 52.49701 5.89360 13046 ft 314 kts 271°
2026-05-01 13:54 52.49864 5.85786 12691 ft 313 kts 271°
2026-05-01 13:54 52.50020 5.82272 12347 ft 313 kts 271°
2026-05-01 13:55 52.50177 5.78717 12003 ft 312 kts 271°
2026-05-01 13:55 52.50331 5.75171 11662 ft 311 kts 270°
2026-05-01 13:55 52.50484 5.71633 11324 ft 311 kts 270°
2026-05-01 13:55 52.50638 5.68086 10985 ft 310 kts 270°
2026-05-01 13:56 52.50790 5.64569 10648 ft 309 kts 270°
2026-05-01 13:56 52.50942 5.61061 10357 ft 306 kts 270°
2026-05-01 13:56 52.51053 5.57628 10271 ft 295 kts 267°
2026-05-01 13:56 52.51147 5.54298 10101 ft 290 kts 270°
2026-05-01 13:57 52.51298 5.51015 9845 ft 288 kts 270°
2026-05-01 13:57 52.51449 5.47749 9569 ft 286 kts 270°
2026-05-01 13:57 52.51604 5.44496 9275 ft 286 kts 270°
2026-05-01 13:57 52.51765 5.41257 8990 ft 284 kts 270°
2026-05-01 13:58 52.51928 5.38030 8698 ft 283 kts 270°
2026-05-01 13:58 52.52091 5.34801 8294 ft 286 kts 270°
2026-05-01 13:58 52.52254 5.31535 7895 ft 288 kts 270°
2026-05-01 13:58 52.52417 5.28254 7565 ft 288 kts 270°
2026-05-01 13:59 52.52577 5.24982 7268 ft 286 kts 270°
2026-05-01 13:59 52.52734 5.21740 6962 ft 284 kts 270°
2026-05-01 13:59 52.52891 5.18516 6659 ft 282 kts 270°
2026-05-01 13:59 52.53048 5.15308 6347 ft 281 kts 270°
2026-05-01 14:00 52.53205 5.12120 6036 ft 280 kts 270°
2026-05-01 14:00 52.53362 5.08949 5723 ft 278 kts 270°
2026-05-01 14:00 52.53516 5.05786 5398 ft 277 kts 270°
2026-05-01 14:00 52.53668 5.02636 5085 ft 276 kts 270°
2026-05-01 14:01 52.53819 4.99491 4775 ft 276 kts 270°
2026-05-01 14:01 52.53962 4.96358 4485 ft 274 kts 270°
2026-05-01 14:01 52.54100 4.93273 4318 ft 264 kts 270°
2026-05-01 14:01 52.54241 4.90369 4103 ft 247 kts 270°
2026-05-01 14:02 52.54380 4.87597 3686 ft 242 kts 270°
2026-05-01 14:02 52.54516 4.84825 3384 ft 242 kts 270°
2026-05-01 14:02 52.54645 4.82084 3160 ft 239 kts 270°
2026-05-01 14:02 52.54752 4.79370 2905 ft 236 kts 265°
2026-05-01 14:03 52.54382 4.76903 2738 ft 219 kts 236°
2026-05-01 14:03 52.53391 4.75196 2711 ft 199 kts 213°
2026-05-01 14:03 52.52315 4.73908 2645 ft 184 kts 210°
2026-05-01 14:03 52.51298 4.72738 2451 ft 174 kts 209°
2026-05-01 14:04 52.50203 4.72105 2134 ft 166 kts 182°
2026-05-01 14:04 52.49054 4.72134 2080 ft 165 kts 175°
2026-05-01 14:04 52.47921 4.72174 2008 ft 160 kts 176°
2026-05-01 14:04 52.47203 4.72157 1968 ft 152 kts 178°
2026-05-01 14:05 52.45813 4.72063 1918 ft 149 kts 179°
2026-05-01 14:05 52.44754 4.71973 1730 ft 154 kts 179°
2026-05-01 14:05 52.43692 4.71880 1516 ft 151 kts 179°
2026-05-01 14:05 52.42636 4.71784 1306 ft 152 kts 179°
2026-05-01 14:06 52.41570 4.71687 1106 ft 155 kts 179°
2026-05-01 14:06 52.40504 4.71590 899 ft 151 kts 180°
2026-05-01 14:06 52.39470 4.71495 693 ft 145 kts 180°
2026-05-01 14:06 52.38480 4.71405 502 ft 141 kts 180°
2026-05-01 14:07 52.37502 4.71315 327 ft 140 kts 180°
2026-05-01 14:07 52.36525 4.71226 141 ft 141 kts 180°
2026-05-01 14:07 52.35544 4.71137 15 ft 137 kts 180°
2026-05-01 14:08 52.34473 4.71050 13 ft 23 kts 172°
2026-05-01 14:08 52.34324 4.71119 13 ft 22 kts 155°
2026-05-01 14:08 52.34195 4.71221 13 ft 18 kts 154°
2026-05-01 14:08 52.34081 4.71284 13 ft 17 kts 182°
2026-05-01 14:09 52.34015 4.71278 13 ft 7 kts 184°
2026-05-01 14:09 52.33945 4.71272 13 ft 13 kts 183°
2026-05-01 14:09 52.33840 4.71263 13 ft 17 kts 182°
2026-05-01 14:09 52.33710 4.71252 13 ft 20 kts 182°
2026-05-01 14:10 52.33561 4.71237 13 ft 23 kts 182°
2026-05-01 14:10 52.33408 4.71223 13 ft 22 kts 183°
2026-05-01 14:10 52.33262 4.71215 13 ft 17 kts 164°
2026-05-01 14:10 52.33179 4.71337 13 ft 16 kts 131°
2026-05-01 14:11 52.33131 4.71487 13 ft 16 kts 72°
2026-05-01 14:11 52.33054 4.71823 13 ft 19 kts 132°
2026-05-01 14:11 52.32964 4.71992 13 ft 20 kts 131°
2026-05-01 14:12 52.32868 4.72169 13 ft 21 kts 131°
2026-05-01 14:12 52.32768 4.72352 13 ft 22 kts 131°
2026-05-01 14:12 52.32665 4.72540 13 ft 22 kts 137°
2026-05-01 14:12 52.32551 4.72704 13 ft 21 kts 139°
2026-05-01 14:13 52.32440 4.72860 13 ft 20 kts 139°
2026-05-01 14:13 52.32369 4.72959 13 ft 20 kts 139°
2026-05-01 14:13 52.32213 4.73179 13 ft 24 kts 139°
2026-05-01 14:13 52.32085 4.73360 13 ft 22 kts 133°
2026-05-01 14:14 52.32054 4.73550 13 ft 19 kts 92°
2026-05-01 14:14 52.32046 4.73769 13 ft 19 kts 93°
2026-05-01 14:14 52.32037 4.74010 13 ft 23 kts 92°
2026-05-01 14:14 52.32031 4.74114 13 ft 4 kts 107°
2026-05-01 14:15 52.32000 4.74172 13 ft 10 kts 142°
2026-05-01 14:15 52.31920 4.74188 13 ft 14 kts 182°
2026-05-01 14:15 52.31802 4.74177 13 ft 19 kts 184°
2026-05-01 14:15 52.31658 4.74163 13 ft 22 kts 183°
2026-05-01 14:16 52.31493 4.74147 13 ft 25 kts 184°
2026-05-01 14:16 52.31313 4.74130 13 ft 26 kts 183°
2026-05-01 14:16 52.31132 4.74114 13 ft 27 kts 183°
2026-05-01 14:16 52.30946 4.74096 13 ft 26 kts 182°
2026-05-01 14:17 52.30761 4.74081 13 ft 27 kts 182°
2026-05-01 14:17 52.30570 4.74064 13 ft 28 kts 182°
2026-05-01 14:17 52.30422 4.74117 13 ft 19 kts 131°
2026-05-01 14:17 52.30328 4.74290 13 ft 21 kts 131°
2026-05-01 14:18 52.30227 4.74477 13 ft 23 kts 131°
2026-05-01 14:18 52.30121 4.74675 13 ft 24 kts 131°
2026-05-01 14:18 52.30010 4.74881 13 ft 24 kts 131°
2026-05-01 14:18 52.29935 4.75020 13 ft 25 kts 131°
2026-05-01 14:19 52.29841 4.75338 13 ft 25 kts 62°
2026-05-01 14:19 52.29938 4.75595 13 ft 28 kts 57°
2026-05-01 14:19 52.30037 4.75851 13 ft 26 kts 58°
2026-05-01 14:19 52.30138 4.76116 13 ft 28 kts 57°
2026-05-01 14:20 52.30244 4.76391 13 ft 27 kts 59°
2026-05-01 14:20 52.30354 4.76519 13 ft 7 kts 332°
2026-05-01 14:20 52.30360 4.76478 13 ft 6 kts 250°
2026-05-01 14:21 52.30342 4.76428 13 ft 0 kts 238°
2026-05-01 14:21 52.30341 4.76427 13 ft 0 kts 238°
2026-05-01 14:21 52.30341 4.76426 13 ft 3 kts 238°
2026-05-01 14:22 52.30342 4.76429 13 ft 0 kts 238°